Tracking 19832 objects as of 25-Aug-2019
HD Live streaming from Space Station
objects crossing your sky now

METEOR 3-5

Track METEOR 3-5 now!
10-day predictions
METEOR 3-5 is classified as:


NORAD ID: 21655
Int'l Code: 1991-056A
Perigee: 1,193.5 km
Apogee: 1,212.5 km
Inclination: 82.6 °
Period: 109.3 minutes
Semi major axis: 7573 km
RCS: 4.9525 m2 (large)
Launch date: August 15, 1991
Source: Commonwealth of Independent States (former USSR) (CIS)
Launch site: PLESETSK MISSILE AND SPACE COMPLEX (PKMTR)
aabbcc
Your satellite tracking list
Your tracking list is empty




NASA's NSSDC Master Catalog

Two Line Element Set (TLE):
1 21655U 91056A   19236.93450087 +.00000008 +00000-0 -11150-4 0  9998
2 21655 082.5539 097.6419 0012582 237.4217 122.5691 13.17089744347164
Source of the keplerian elements: AFSPC